AO-07 1 07530U 74089B 20170.70078539 -.00000039 00000-0 40455-4 0 9997 2 07530 101.7995 140.4343 0012321 003.8252 168.6856 12.53643893086140 UO-11 1 14781U 84021B 20170.77355584 .00000042 00000-0 11231-4 0 9998 2 14781 097.5895 182.6830 0008153 186.6671 173.4436 14.83173020932029 LO-19 1 20442U 90005G 20170.76916793 -.00000020 00000-0 90940-5 0 9994 2 20442 098.6923 118.0222 0012316 146.3617 213.8351 14.32954820588741 HUBBLE 1 20580U 90037B 20170.82684559 .00000354 00000-0 10528-4 0 9993 2 20580 028.4702 310.5828 0002836 104.6100 049.7571 15.09398327456171 MET-2/21 1 22782U 93055A 20170.69099907 -.00000022 00000-0 -32975-4 0 9998 2 22782 82.5495 232.5986 0021400 229.3181 248.0302 13.83826486353485 AO-27 1 22825U 93061C 20170.56217640 -.00000016 00000-0 11770-4 0 9997 2 22825 098.9229 173.0426 0008789 021.2011 338.9533 14.30086985393971 IO-26 1 22826U 93061D 20170.75817936 -.00000004 00000-0 16330-4 0 9997 2 22826 098.9170 173.1905 0009080 008.7939 351.3400 14.30422738394236 FO-29 1 24278U 96046B 20170.79488696 -.00000077 00000-0 -41814-4 0 9993 2 24278 098.5839 280.4491 0350511 011.5424 349.3496 13.53097682177060 NOAA-15 1 25338U 98030A 20170.76733472 .00000071 00000-0 48589-4 0 9996 2 25338 098.7163 195.8118 0009228 257.4287 102.5861 14.25973064149161 GO-32 1 25397U 98043D 20170.78057800 -.00000034 00000-0 44790-5 0 9992 2 25397 098.7285 112.2676 0002340 070.9523 289.1909 14.23686317139740 ISS 1 25544U 98067A 20170.71799810 .00000137 00000-0 10522-4 0 9997 2 25544 51.6449 340.8848 0002807 58.0085 59.1355 15.49447130232259 NO-44 1 26931U 01043C 20170.63741698 -.00000046 00000-0 14034-4 0 9990 2 26931 067.0503 139.3398 0005917 271.8368 088.2055 14.30579935977240 SO-50 1 27607U 02058C 20170.79115415 -.00000028 00000-0 16509-4 0 9996 2 27607 064.5561 010.2788 0047742 176.6562 183.4870 14.75640890940923 CO-55 1 27844U 03031E 20170.83932063 .00000033 00000-0 34675-4 0 9991 2 27844 098.6810 178.5538 0010906 055.9197 304.3014 14.22242850880290 CO-57 1 27848U 03031J 20170.93674957 .00000027 00000-0 32167-4 0 9998 2 27848 098.6877 179.2069 0010913 066.6487 293.5838 14.21829047880159 RS-22 1 27939U 03042A 20170.81880256 .00000028 00000-0 13609-4 0 9990 2 27939 98.0910 305.6206 0012604 355.3436 4.7651 14.66865945894214 NOAA-18 1 28654U 05018A 20170.79222052 .00000080 00000-0 67719-4 0 9990 2 28654 99.0434 227.2338 0013562 223.9643 136.0450 14.12518744777196 CO-58 1 28895U 05043F 20170.91787635 .00000069 00000-0 22145-4 0 9993 2 28895 098.0099 307.2320 0015372 276.4654 083.4798 14.63776158780820 Falconsat-3 1 30776U 07006E 20170.72166091 .00001619 00000-0 43964-4 0 9995 2 30776 035.4343 271.9002 0002712 211.9903 148.0660 15.37824109737030 CO-65 1 32785U 08021C 20170.74349992 .00000110 00000-0 17438-4 0 9992 2 32785 97.5725 158.7033 0014310 125.0140 235.2423 14.88477920658135 AAUSAT2 1 32788U 08021F 20170.92496911 -.00000051 00000-0 30569-6 0 9996 2 32788 097.4905 175.3587 0013094 055.3938 304.8517 14.95070885659533 DO-64 1 32789U 08021G 20170.66186129 .00001177 00000-0 80939-4 0 9998 2 32789 097.4178 213.4218 0010697 317.8069 042.2335 15.07744848661993 CO-66 1 32791U 08021J 20170.54088542 .00000299 00000-0 35507-4 0 9993 2 32791 097.5402 164.6434 0014904 098.0627 262.2284 14.91057864658548 RS-30 1 32953U 08025A 20170.84563568 .00000037 00000-0 19437-3 0 9999 2 32953 082.5024 277.0351 0019837 053.7621 306.5289 12.43096687547805 PRISM 1 33493U 09002B 20170.85787579 .00000865 00000-0 80462-4 0 9992 2 33493 098.1452 111.2070 0016559 054.4812 305.7950 14.97052458619915 NOAA-19 1 33591U 09005A 20170.72538199 .00000077 00000-0 67123-4 0 9996 2 33591 099.1948 176.1066 0015016 073.7512 286.5310 14.12415603585312 TISAT-1 1 36799U 10035E 20170.91293949 .00000122 00000-0 18370-4 0 9997 2 36799 098.1943 341.2422 0011459 331.3581 028.7006 14.91365904539149 JUGNU 1 37839U 11058B 20170.63694521 .00000304 00000-0 20586-4 0 9993 2 37839 19.9612 275.5933 0019070 41.4041 83.5275 14.12681888449065 SRMSAT 1 37841U 11058D 20170.76859856 .00000312 00000-0 26032-4 0 9995 2 37841 019.9737 339.1479 0011808 258.4461 130.2326 14.10661178448351 AO-71 1 37854U 11061E 20170.69276880 .00000651 00000-0 40465-4 0 9997 2 37854 101.7000 262.5797 0158329 058.1588 303.4927 15.07307983472115 HRBE 1 37855U 11061F 20170.77232424 .00000898 00000-0 51860-4 0 9997 2 37855 101.7133 259.8586 0170940 071.0794 290.8862 15.06330640471407 HORYU-2 1 38340U 12025D 20170.70174368 .00000116 00000-0 24887-4 0 9995 2 38340 098.2803 224.2669 0012304 042.9307 317.2860 14.75859176424736 RS-40 1 38735U 12041C 20170.73845796 .00000006 00000-0 -25110-4 0 9993 2 38735 082.4765 359.8625 0017092 156.2125 203.9744 12.42579833358019 BEESAT-3 1 39135U 13015F 20170.82284812 .00000733 00000-0 45048-4 0 9994 2 39135 064.8669 296.9880 0036107 246.9302 112.8016 15.18188750395423 BEESAT-2 1 39136U 13015G 20170.87098837 .00000559 00000-0 37417-4 0 9997 2 39136 064.8703 301.8089 0030925 279.1484 080.6144 15.17576253395333 ZACUBE-1 1 39417U 13066B 20170.71593725 .00000150 00000-0 25249-4 0 9991 2 39417 097.5643 168.6687 0057230 273.9497 085.5175 14.81280966355223 TRITON-1 1 39427U 13066M 20164.63909023 .00000164 00000-0 33806-4 0 9991 2 39427 097.7250 125.8338 0115088 093.3358 268.1019 14.68003877351157 GOMX-1 1 39430U 13066Q 20170.90221783 .00000093 00000-0 25925-4 0 9996 2 39430 097.7908 109.3430 0150784 179.5102 180.6274 14.59403216350013 LO-74 1 39440U 13066AA 20170.64204772 .00000141 00000-0 26704-4 0 9997 2 39440 097.6306 153.0770 0079526 337.4665 022.3060 14.76017136352750 AO-73 1 39444U 13066AE 20170.57795363 .00000204 00000-0 31462-4 0 9991 2 39444 097.5585 170.7698 0056300 266.3742 093.1032 14.82134912353539 SPROUT 1 39770U 14029E 20170.82877932 .00000484 00000-0 59140-4 0 9997 2 39770 097.8969 277.1002 0008476 333.3484 026.7293 14.87772246329267 DUCHIFAT-1 1 40021U 14033M 20170.89021638 .00000350 00000-0 41345-4 0 9994 2 40021 097.9430 102.1348 0011432 285.5097 074.4858 14.90913269326109 NANOSATCBR1 1 40024U 14033Q 20170.77961271 .00000114 00000-0 17727-4 0 9995 2 40024 97.9278 98.4001 0010780 291.1017 68.9048 14.90081479325955 DTUSAT-2 1 40030U 14033W 20170.76231159 .00000110 00000-0 17797-4 0 9999 2 40030 97.9035 92.5363 0010525 294.9219 65.0903 14.88720115325717 EO-80 1 40032U 14033Y 20170.78124869 .00000148 00000-0 21886-4 0 9997 2 40032 097.9042 092.5575 0010487 295.9094 064.1041 14.88669236325181 ANTELSAT 1 40034U 14033AA 20170.55544486 .00000142 00000-0 28381-4 0 9996 2 40034 097.7145 026.1969 0058619 356.7293 003.3525 14.74261816322042 VELOX-1 1 40057U 14034E 20170.85487846 .00000208 00000-0 36624-4 0 9993 2 40057 098.2805 307.8579 0011893 136.6590 223.5554 14.77879253321848 DAURIA DX 1 1 40071U 14037C 20170.86777023 .00000083 00000-0 18206-4 0 9999 2 40071 098.4609 349.3485 0009391 127.6046 232.6028 14.81369423321464 HODOYOSHI-1 1 40299U 14070B 20170.84461983 .00000343 00000-0 16985-4 0 9992 2 40299 97.3222 247.5492 0012813 183.3722 314.8490 15.24075950312020 CHUBUSAT-1 1 40300U 14070C 20170.79675047 .00000401 00000-0 20173-4 0 9996 2 40300 97.2874 239.9178 0018824 204.3895 274.4903 15.22517979311719 QSAT-EOS 1 40301U 14070D 20170.84032211 .00001086 00000-0 43423-4 0 9996 2 40301 97.2923 245.2512 0025047 179.4987 319.0746 15.26961011312149 FIREBIRD FU3 1 40377U 15003B 20170.84238931 .00000779 00000-0 34134-4 0 9990 2 40377 099.0945 231.3307 0122772 309.8244 049.2231 15.20082682297518 FIREBIRD FU4 1 40378U 15003C 20170.76080054 .00000847 00000-0 36655-4 0 9999 2 40378 99.0949 231.3310 0122956 309.9675 49.0807 15.20098987297512 GRIFEX 1 40379U 15003D 20170.73405309 .00000695 00000-0 33461-4 0 9994 2 40379 099.1018 223.2092 0132257 335.1980 024.2927 15.16432372297044 NO-84 1 40654U 15025D 20169.37373466 .00011459 00000-0 13433-3 0 9615 2 40654 54.9879 301.0657 0116187 186.3466 173.6108 15.54277428169011 DEORBITSAIL 1 40719U 15032E 20170.92383635 .00000262 00000-0 44238-4 0 9996 2 40719 097.8703 059.5303 0015535 198.5914 161.4730 14.77009031266310 NUDT-PHONESAT 1 40900U 15049B 20170.83939992 .00001427 00000-0 61570-4 0 9991 2 40900 97.4301 181.7814 0012134 347.5309 136.8715 15.24124503263404 XW-2A 1 40903U 15049E 20170.87094494 .00001311 00000-0 31570-4 0 9996 2 40903 97.2880 219.8248 0011340 256.0577 214.1945 15.43102380266699 XW-2C 1 40906U 15049H 20170.82946354 .00000235 00000-0 15643-4 0 9992 2 40906 97.4754 172.1577 0015375 15.6470 68.4100 15.16078905262462 XW-2D 1 40907U 15049J 20170.88184347 .00000332 00000-0 20559-4 0 9995 2 40907 97.4743 171.9167 0014618 13.0994 31.9710 15.16313166262491 LILACSAT-2 1 40908U 15049K 20170.89139644 -.00000030 00000-0 19438-5 0 9998 2 40908 97.4899 170.2760 0016531 22.2847 40.2828 15.14044546262214 XW-2E 1 40909U 15049L 20170.92301819 .00000784 00000-0 41320-4 0 9997 2 40909 97.4623 175.4387 0013631 4.6043 57.7859 15.18443361262750 XW-2F 1 40910U 15049M 20170.87814425 .00000745 00000-0 39971-4 0 9991 2 40910 97.4675 174.4895 0014666 2.8811 81.8950 15.17952350262554 XW-2B 1 40911U 15049N 20170.87877729 .00000611 00000-0 34969-4 0 9992 2 40911 97.4756 172.6093 0014338 14.2858 101.2901 15.16240687262385 DCBB 1 40912U 15049P 20170.87669278 .00000797 00000-0 39734-4 0 9991 2 40912 97.4476 178.6381 0014013 340.2955 139.7998 15.20347169262932 TW-1C 1 40926U 15051B 20170.91370546 .00015703 00000-0 15507-3 0 9995 2 40926 097.0835 222.6977 0007828 088.5722 033.6520 15.65949804267259 TW-1A 1 40928U 15051D 20170.89974831 .00001869 00000-0 44768-4 0 9991 2 40928 097.1091 198.6959 0010818 171.2157 311.4622 15.42624768265592 IO-86 1 40931U 15052B 20170.63239501 .00000590 00000-0 -71435-5 0 9999 2 40931 005.9960 327.0063 0014202 294.4686 065.4025 14.76636473255435 LQSat 1 40958U 15057A 20170.74836424 -.00000012 00000-0 57312-5 0 9999 2 40958 097.8523 234.0810 0019045 142.4178 217.8365 14.73122229252707 ATHENOXAT-1 1 41168U 15077C 20170.02656266 .00001434 00000-0 39173-4 0 9992 2 41168 14.9891 57.2109 0011303 136.8414 223.2794 15.14386861249437 ChubuSat-2 1 41338U 16012B 20170.76603848 .00000238 00000-0 11722-4 0 9991 2 41338 31.0044 338.0767 0013575 130.0997 230.0830 15.00297966237932 ChubuSat-3 1 41339U 16012C 20170.76053394 .00000226 00000-0 10779-4 0 9995 2 41339 31.0132 335.7459 0013131 137.3778 222.7890 15.00462222237931 Horyu-4 1 41340U 16012D 20170.76204134 .00000338 00000-0 18803-4 0 9997 2 41340 031.0060 323.4544 0013773 162.5293 197.5819 15.01505787238077 OUFTI-1 1 41458U 16025C 20170.74457509 .00001131 00000-0 60469-4 0 9992 2 41458 098.1051 281.3878 0162936 204.9034 154.4268 15.06853140227671 e-st@r-II 1 41459U 16025D 20170.85698670 .00001381 00000-0 73263-4 0 9994 2 41459 098.1025 280.9178 0164896 206.6510 152.6205 15.06413926227659 AAUSAT4 1 41460U 16025E 20170.79317959 .00001950 00000-0 98594-4 0 9993 2 41460 98.0994 283.1838 0153783 195.5683 164.0822 15.08721638227840 LO-87 1 41557U 16033B 20170.75436695 .00000830 00000-0 33016-4 0 9998 2 41557 97.4036 260.9688 0015249 84.5744 275.7235 15.28029178225974 NuSat2 1 41558U 16033C 20170.91428619 .00000908 00000-0 33798-4 0 9997 2 41558 097.4091 263.4355 0014256 081.6589 278.6267 15.30016580226117 Lapan A3 1 41603U 16040E 20170.85824675 .00000087 00000-0 71340-5 0 9995 2 41603 097.3084 224.3593 0012888 190.7473 279.6439 15.19842033221352 Swayam 1 41607U 16040J 20170.84186157 .00000989 00000-0 43340-4 0 9993 2 41607 097.3172 230.1798 0013233 174.4869 185.6517 15.24247045221631 Pratham 1 41783U 16059A 20170.70343579 .00000031 00000-0 15195-4 0 9991 2 41783 98.0161 226.1283 0032475 313.9936 45.8590 14.63059545199067 AlSat 1N 1 41789U 16059G 20170.92481613 .00000021 00000-0 13010-4 0 9996 2 41789 098.0193 229.1645 0027065 300.5536 059.2987 14.64324190199241 ScatSat 1 41790U 16059H 20170.91435617 -.00000019 00000-0 59625-5 0 9991 2 41790 098.1604 211.1585 0004498 284.2170 075.8517 14.50920095197435 TY-1 1 41844U 16066D 20170.88309123 .00000581 00000-0 26238-4 0 9993 2 41844 97.4023 179.0363 0014545 346.2396 132.1924 15.24858032200483 Pegasus-1 1 41846U 16066F 20170.81982554 .00000199 00000-0 41212-4 0 9997 2 41846 098.6611 220.8902 0365957 229.0070 127.8930 14.37772374189164 CAS-2T 1 41847U 16066G 20170.73719375 .00000066 00000-0 21018-4 0 9993 2 41847 98.6536 221.2671 0364853 224.9844 132.1253 14.38071307189601 EO-88 1 42017U 17008BX 20170.86015501 .00000970 00000-0 39935-4 0 9995 2 42017 097.3596 238.4019 0005136 331.5374 028.5583 15.26505259185761 CAS-4B 1 42759U 17034B 20170.95020068 -.00000073 00000-0 90466-5 0 9993 2 42759 043.0203 018.8314 0010535 033.4861 103.7067 15.09830683166195 CAS-4A 1 42761U 17034D 20170.96098490 .00000010 00000-0 14105-4 0 9996 2 42761 043.0208 018.0699 0010930 034.7066 104.6929 15.09909931166191 UCLSat 1 42765U 17036A 20170.79914414 .00000723 00000-0 33118-4 0 9992 2 42765 097.3004 225.0048 0012023 029.9510 330.2412 15.23533273166781 NIUSat 1 42766U 17036B 20170.84975222 .00000591 00000-0 29031-4 0 9995 2 42766 097.2999 222.5220 0015949 021.6897 338.5011 15.21726724165907 LituanicaSAT 2 1 42768U 17036D 20170.71012547 .00001421 00000-0 61251-4 0 9998 2 42768 97.3060 224.8923 0015013 18.7733 341.4056 15.24084223166033 Aalto 1 1 42775U 17036L 20170.83343454 .00000485 00000-0 24269-4 0 9990 2 42775 097.2979 222.8521 0014353 021.7851 338.3993 15.21846486165883 URSA MAIOR 1 42776U 17036M 20170.82257603 .00000530 00000-0 26102-4 0 9999 2 42776 097.2992 223.1266 0014152 021.6810 338.5023 15.22029718165899 Max Valier Sat 1 42778U 17036P 20170.78811788 .00000598 00000-0 28611-4 0 9997 2 42778 097.3046 224.3872 0012805 025.8765 334.3110 15.22625462165930 Pegasus 1 42784U 17036V 20170.89041501 .00000724 00000-0 33463-4 0 9996 2 42784 097.3009 224.7827 0012590 030.0067 330.1889 15.23222274165992 NUDATSat 1 42787U 17036Y 20170.94613886 .00001576 00000-0 66777-4 0 9996 2 42787 097.3043 226.2337 0012649 023.2881 336.8925 15.24539470165926 SUCHAI 1 1 42788U 17036Z 20170.84846989 .00000866 00000-0 38815-4 0 9991 2 42788 097.3017 225.3314 0012093 028.8925 331.2980 15.23773376166099 SKCUBE 1 42789U 17036AA 20170.82901871 .00000812 00000-0 36733-4 0 9990 2 42789 097.3012 225.1647 0011980 029.3644 330.8264 15.23614836166006 VZLUSAT 1 1 42790U 17036AB 20170.80387286 .00001078 00000-0 46597-4 0 9992 2 42790 097.3037 226.0922 0011418 027.7197 332.4647 15.24520725166054 VENTA 1 1 42791U 17036AC 20170.80309535 .00000773 00000-0 35148-4 0 9995 2 42791 097.3010 225.1819 0011673 030.0712 330.1194 15.23597496165996 Robusta 1B 1 42792U 17036AD 20170.58565101 .00000900 00000-0 40194-4 0 9993 2 42792 097.3016 225.1795 0011618 030.7841 329.4075 15.23803161165993 D-SAT 1 42794U 17036AF 20170.78418251 .00000120 00000-0 15808-4 0 9998 2 42794 097.4930 203.3743 0126165 001.3388 358.8144 14.91282010162893 TechnoSat 1 42829U 17042E 20170.69223757 .00000197 00000-0 25154-4 0 9998 2 42829 97.5201 52.4146 0012705 282.6511 77.3287 14.91103405159471 QIKCOM-1 1 42983U 98067NF 20170.84367784 .00002653 00000-0 36314-4 0 9990 2 42983 051.6394 298.4936 0004054 065.3334 294.8081 15.61584963150505 AO-91 1 43017U 17073E 20170.81056820 .00000535 00000-0 46483-4 0 9995 2 43017 097.7233 082.9936 0258190 046.1787 316.0457 14.78940141139360 EcAMSat 1 43019U 98067NG 20170.72031170 .00006081 00000-0 62953-4 0 9992 2 43019 51.6409 285.0011 0003907 51.7265 308.4082 15.66282533232997 PICSAT 1 43132U 18004X 20170.75858830 .00000927 00000-0 40698-4 0 9999 2 43132 097.4471 242.0915 0010898 055.5238 304.7027 15.24424161135253 AO-92 1 43137U 18004AC 20170.73155440 .00000672 00000-0 30549-4 0 9990 2 43137 97.4455 241.8838 0010541 57.6126 302.6129 15.24128677135236 TianYi 2 1 43155U 18008A 20170.87454076 .00000845 00000-0 53255-4 0 9997 2 43155 97.4469 239.9303 0018640 139.2882 346.8876 15.11640341133139 Zhou Enlai 1 43156U 18008B 20170.90235832 .00000138 00000-0 11975-4 0 9997 2 43156 97.4507 239.8060 0015617 136.8301 333.3924 15.11179520133098 TianYi 6 1 43158U 18008D 20170.79364488 .00000731 00000-0 47824-4 0 9997 2 43158 097.4457 238.7568 0014750 135.7397 003.8952 15.10719460133020 S-Net G 1 43186U 18014G 20170.85226036 -.00000426 00000-0 -32155-4 0 9992 2 43186 097.6949 078.6696 0009908 214.2956 145.7627 14.96814088129907 S-Net H 1 43187U 18014H 20170.85208394 -.00000426 00000-0 -32162-4 0 9998 2 43187 097.6947 078.6479 0009899 214.2439 145.8145 14.96813970129905 S-Net J 1 43188U 18014J 20170.71825351 -.00000404 00000-0 -30230-4 0 9992 2 43188 097.6950 078.5459 0009872 214.8039 145.2538 14.96813979129886 S-Net K 1 43189U 18014K 20170.71867492 -.00000417 00000-0 -31329-4 0 9999 2 43189 097.6946 078.5118 0009896 214.6696 145.3882 14.96813181128435 FMN 1 1 43192U 18015A 20170.90852943 .00001320 00000-0 54593-4 0 9990 2 43192 097.4434 300.3899 0017414 085.4730 031.7397 15.25627243132124 Shaonian Xing 1 43199U 18015H 20170.90232308 .00001007 00000-0 42142-4 0 9993 2 43199 097.4217 298.6525 0018303 093.7577 025.6599 15.25781845132185 UBAKUSAT 1 43467U 98067NQ 20170.87388155 .00020954 00000-0 13804-3 0 9998 2 43467 051.6350 274.4195 0001485 007.4170 352.6852 15.75613534120335 EnduroSat One 1 43551U 98067NZ 20170.69149682 .00042632 00000-0 20912-3 0 9997 2 43551 051.6337 272.3972 0001906 049.6209 310.4960 15.81783074110574 EQUISat 1 43552U 98067PA 20170.68860185 .00022921 00000-0 15809-3 0 9993 2 43552 051.6346 282.3016 0003078 089.7111 270.4241 15.74483261110400 UiTMSat 1 1 43589U 98067PD 20170.70960208 .00031952 00000-0 19242-3 0 9992 2 43589 51.6347 280.0022 0001792 108.5925 251.5270 15.77394116106171 Maya 1 1 43590U 98067PE 20170.57574531 .00032704 00000-0 19696-3 0 9998 2 43590 51.6296 280.6006 0001692 96.8893 263.2300 15.77380047106088 Bhutan 1 1 43591U 98067PF 20170.67480058 .00032500 00000-0 19426-3 0 9995 2 43591 051.6360 279.8451 0001861 109.2904 250.8298 15.77553501106103 SiriusSat 1 1 43595U 98067PG 20170.92167218 .00024629 00000-0 16658-3 0 9994 2 43595 051.6306 283.7024 0001558 032.6770 327.4326 15.74891955105253 SiriusSat 2 1 43596U 98067PH 20170.92011721 .00024857 00000-0 16891-3 0 9994 2 43596 051.6318 284.5185 0001893 036.3543 323.7585 15.74777372105246 Tanusha-3 1 43597U 98067PJ 20170.86951175 .00066421 00000-0 25912-3 0 9991 2 43597 051.6281 271.1455 0003386 345.6389 014.4518 15.86418205105410 SurfSat 1 43614U 18070B 20170.90086007 .00001963 00000-0 50601-4 0 9999 2 43614 093.0201 155.1850 0014170 342.5605 017.5160 15.39201455098707 CP-7 DAVE 1 43615U 18070C 20170.67234262 .00001870 00000-0 48453-4 0 9991 2 43615 093.0204 155.0809 0014340 342.8966 017.1803 15.39054929098663 ELFIN-B 1 43616U 18070D 20170.90662292 .00002500 00000-0 61871-4 0 9996 2 43616 093.0160 155.1205 0014668 343.7701 016.3082 15.40408873098748 ELFIN-A 1 43617U 18070E 20170.67996776 .00003229 00000-0 79405-4 0 9999 2 43617 093.0212 155.5395 0013892 341.7755 018.3000 15.40594745098719 STARS-Me Mother 1 43640U 98067PQ 20170.82952793 .00009770 00000-0 99581-4 0 9991 2 43640 051.6354 301.2529 0003957 039.2266 320.9016 15.65837007096948 CubeBel 1 1 43666U 18083E 20170.89088141 .00000656 00000-0 35295-4 0 9999 2 43666 097.4889 197.3430 0014943 002.0519 121.7017 15.18265472090837 Changshagaoxin 1 43669U 18083H 20170.86352238 .00000503 00000-0 28603-4 0 9996 2 43669 097.4763 195.5037 0010649 358.5285 001.5916 15.17297898090741 Ten-Koh 1 43677U 18084G 20170.56374486 .00000020 00000-0 78767-5 0 9993 2 43677 097.8830 287.6225 0016788 150.4737 209.7432 14.90290411089109 PO-101 1 43678U 18084H 20170.88297579 -.00000132 00000-0 -74488-5 0 9998 2 43678 097.8837 289.2854 0010172 164.9027 195.2507 14.91631661089239 IRVINE 01 1 43693U 18088D 20170.74042818 .00001652 00000-0 68625-4 0 9999 2 43693 085.0360 076.1626 0015592 290.4934 069.4634 15.22887510089042 QO-100 1 43700U 18090A 20170.85238762 .00000157 00000-0 00000-0 0 9996 2 43700 000.0130 341.3206 0000993 122.3413 136.5467 01.00269068005724 Reaktor Hello World 1 43743U 18096AA 20170.73887769 .00000878 00000-0 35348-4 0 9990 2 43743 097.4210 244.6063 0019383 121.0547 239.2598 15.27414991086594 MinXSS-2 1 43758U 18099A 20170.73658115 .00000435 00000-0 44262-4 0 9994 2 43758 097.7060 242.6565 0015735 179.6547 180.4687 14.95668329084142 AO-95 1 43770U 18099N 20170.84719006 -.00000219 00000-0 -14762-4 0 9991 2 43770 097.7055 242.2036 0014384 186.6886 173.4145 14.94991475084121 RANGE-B 1 43772U 18099Q 20170.73341967 .00000355 00000-0 37480-4 0 9999 2 43772 097.7122 242.6022 0014455 174.0834 186.0560 14.95178916084107 RANGE-A 1 43773U 18099R 20170.83787774 -.00000189 00000-0 -12086-4 0 9993 2 43773 097.6999 241.8347 0013672 173.3206 186.8200 14.94970610084115 MOVE-II 1 43780U 18099Y 20170.52815180 .00000246 00000-0 27433-4 0 9994 2 43780 097.7057 242.1010 0013514 184.7762 175.3332 14.95401431084073 SNUSat 2 1 43782U 18099AA 20170.87512887 .00000533 00000-0 53569-4 0 9990 2 43782 097.7052 242.4434 0013040 172.1466 187.9961 14.95258440084133 SnugLite 1 43784U 18099AC 20170.70958638 -.00000223 00000-0 -14991-4 0 9996 2 43784 097.7019 242.1066 0015028 181.7951 178.3219 14.95357944084127 ITASat 1 1 43786U 18099AE 20170.70996547 -.00000253 00000-0 -17664-4 0 9992 2 43786 097.7072 242.4892 0015137 180.9635 179.1560 14.95331457084128 EAGLET 1 1 43790U 18099AJ 20170.70164401 -.00000008 00000-0 44295-5 0 9991 2 43790 097.7064 242.7365 0013282 184.4966 175.6138 14.95712891083831 ESEO 1 43792U 18099AL 20170.71210192 -.00000414 00000-0 -32107-4 0 9993 2 43792 097.7035 242.5706 0013153 181.8154 178.3021 14.95601907083897 CSIM 1 43793U 18099AM 20170.75636487 .00000789 00000-0 75312-4 0 9995 2 43793 097.7032 242.5960 0013226 177.2083 182.9215 14.96055611083889 Astrocast 0.1 1 43798U 18099AS 20170.89174408 .00000453 00000-0 45577-4 0 9993 2 43798 097.7060 243.0223 0012942 162.9101 197.2559 14.95876117084162 JO-97 1 43803U 18099AX 20170.65744594 -.00000003 00000-0 49304-5 0 9998 2 43803 97.7030 242.2562 0015177 181.7065 178.4107 14.95505700 84116 Suomi 100 1 43804U 18099AY 20170.72519150 .00000016 00000-0 66703-5 0 9990 2 43804 097.7025 242.3110 0015238 181.6490 178.4683 14.95494268084137 Al Farabi 2 1 43805U 18099AZ 20170.69929913 .00000168 00000-0 20271-4 0 9996 2 43805 097.7041 242.3697 0015195 180.8640 179.2558 14.95619319084132 PWSat 2 1 43814U 18099BJ 20170.72705634 .00021161 00000-0 12143-2 0 9995 2 43814 97.7890 251.4696 0011571 160.8193 199.3475 15.12517935 83916 CHOMPTT 1 43855U 18104G 20170.75076235 .00000730 00000-0 29148-4 0 9992 2 43855 085.0371 174.3523 0019414 052.2925 308.0074 15.22975234083722 ISAT 1 43879U 18111D 20170.90241260 .00000478 00000-0 47473-4 0 9995 2 43879 097.7031 078.3103 0011567 235.9816 124.0308 14.96247344080691 UWE-4 1 43880U 18111E 20170.74916975 .00000471 00000-0 46524-4 0 9990 2 43880 97.7035 78.4285 0010980 236.9417 123.0750 14.96471563 78683 Sparrow 1 43881U 18111F 20170.73120549 -.00000145 00000-0 -76360-5 0 9996 2 43881 097.7041 078.4842 0011200 236.5653 123.4498 14.96533931078685 Lume 1 1 43908U 18111AJ 20170.88569752 .00000650 00000-0 28654-4 0 9996 2 43908 097.2660 070.7790 0022431 134.7071 225.5999 15.25041305082244 FO-98 1 43933U 19003B 20170.70489455 .00000475 00000-0 23614-4 0 9993 2 43933 097.2298 220.3966 0016406 234.1359 125.8355 15.22115386078720 FO-99 1 43937U 19003F 20170.67375177 .00000824 00000-0 36261-4 0 9998 2 43937 097.2260 221.6108 0022952 216.8788 143.0873 15.24389536078821 Delphini 1 1 44030U 98067PW 20170.67136517 .00015354 00000-0 15041-3 0 9999 2 44030 51.6347 308.4530 0003269 89.7914 270.3457 15.66317636 78704 MYSat 1 1 44045U 18092F 20170.62175672 .00001573 00000-0 53938-4 0 9991 2 44045 051.6415 036.6149 0010960 331.3878 028.6502 15.36690013075468 AstroCast 0.2 1 44083U 19018F 20170.73641855 .00000427 00000-0 21970-4 0 9993 2 44083 97.4207 231.7644 0013724 160.7486 199.4271 15.21608500 67572 AISTechSat 3 1 44103U 19018AB 20170.87551990 .00000571 00000-0 27117-4 0 9990 2 44103 097.4086 232.0718 0013364 174.5283 250.3050 15.23162778067659 AISat 1 1 44104U 19018AC 20170.73934650 .00000568 00000-0 20717-4 0 9999 2 44104 097.4636 240.4210 0057404 206.8565 152.9702 15.31057698068000 Raavana-1 1 44329U 98067QE 20170.73245220 .00007652 00000-0 10686-3 0 9991 2 44329 051.6400 327.7421 0005536 011.7070 348.4050 15.57937158057200 Uguisu 1 44330U 98067QF 20170.87329218 .00006896 00000-0 97275-4 0 9997 2 44330 051.6387 327.1772 0005585 010.8667 349.2444 15.57853478057203 NepaliSat-1 1 44331U 98067QG 20170.72485993 .00007618 00000-0 10634-3 0 9991 2 44331 051.6386 327.6881 0005619 013.7162 346.3982 15.57959299057190 Prox-1 1 44339U 19036A 20170.50396910 .00000688 00000-0 11333-3 0 9991 2 44339 23.9998 105.2702 0011668 162.2975 197.7924 14.53011132 52283 Oculus-ASR 1 44348U 19036K 20170.65329006 .00004647 00000-0 65267-4 0 9994 2 44348 028.5191 015.3974 0367313 320.6289 036.8132 15.02463983053982 Armadillo 1 44352U 19036P 20170.73213405 .00006669 00000-0 95151-4 0 9994 2 44352 028.5341 010.5742 0355136 327.7067 030.2233 15.05164557053984 NO-104 1 44354U 19036R 20170.71718899 .00005035 00000-0 69949-4 0 9993 2 44354 028.5334 012.2998 0364193 324.5604 033.1287 15.03476913054011 NO-103 1 44355U 19036S 20170.72085800 .00010186 00000-0 13988-3 0 9998 2 44355 028.5327 003.5376 0343109 338.8246 019.8445 15.08818936054108 CP9 1 44360U 19036X 20170.59493424 .00020041 -57594-5 21960-3 0 9990 2 44360 28.5148 350.0270 0325340 1.6235 358.5357 15.15919039 54095 Move-IIb 1 44398U 19038N 20170.54496165 .00000679 00000-0 42676-4 0 9990 2 44398 097.5361 131.7615 0026579 121.5395 238.8437 15.12322693052747 SONATE 1 44400U 19038Q 20170.71202085 .00000376 00000-0 25548-4 0 9992 2 44400 097.5399 131.9421 0026676 119.8393 240.5494 15.11955835052769 BeeSat 9 1 44412U 19038AC 20170.65988197 .00000515 00000-0 33341-4 0 9998 2 44412 097.5385 131.9758 0024080 124.8250 235.5250 15.12300179052451 JAISAT-1 1 44419U 19038F 20170.87822131 .00000497 00000-0 31897-4 0 9997 2 44419 097.5386 132.4568 0022940 123.2244 237.1190 15.12783645052817 LightSail-2 1 44420U 19036AC 20170.48703699 .00005078 00000-0 10867-2 0 9993 2 44420 024.0065 101.2858 0023678 153.7248 206.4449 14.55710542050473 Taurus 1 1 44530U 19059C 20170.77179854 .00000325 00000-0 10463-3 0 9995 2 44530 98.5684 251.8700 0016250 151.7920 208.4138 14.45559266 40535 MO-106 1 44830U 19084G 20170.72410900 .00044313 00000-0 24925-3 0 9994 2 44830 096.9738 039.8949 0024522 226.5668 133.3560 15.78671191030656 TRSI-Sat 1 44831U 19084H 20170.41493612 .00038002 00000-0 21680-3 0 9995 2 44831 096.9747 039.5871 0024650 227.0680 132.8520 15.78378554030613 MO-105 1 44832U 19084J 20170.71971441 .00050274 00000-0 26588-3 0 9997 2 44832 96.9741 40.0638 0023345 224.3774 135.5624 15.80049905 30668 Duchifat 3 1 44854U 19089C 20170.82664780 .00000250 00000-0 26660-4 0 9994 2 44854 036.9668 090.2357 0007161 068.5046 291.6473 14.99070103028506 OPS-SAT 1 44878U 19092F 20170.62384762 .00000667 00000-0 38674-4 0 9991 2 44878 097.4685 353.8768 0014056 359.6947 000.4275 15.15487187027713 FloripaSat 1 1 44885U 19093G 20170.80951750 .00000169 00000-0 28016-4 0 9993 2 44885 097.9573 246.9979 0015712 047.8190 312.4353 14.82035891026901 RS-44 1 44909U 19096E 20170.92191756 .00000022 00000-0 48008-4 0 9999 2 44909 082.5212 354.3382 0216643 222.8738 135.5297 12.79707972022377 SwampSat-2 1 45115U 19071E 20170.83306067 .00006824 00000-0 20627-3 0 9997 2 45115 051.6429 355.9219 0013436 066.5979 293.6416 15.35329299021336 HO-107 1 45119U 19071J 20170.83099233 .00000859 00000-0 37567-4 0 9999 2 45119 051.6449 356.6442 0012823 060.8619 299.3645 15.33576503021332 Phoenix 1 45258U 98067RB 20170.73461862 .00002939 00000-0 57724-4 0 9993 2 45258 51.6426 339.7527 0005917 352.5799 7.5102 15.50878072 18678 AztechSat-1 1 45261U 98067RE 20170.75804849 .00005984 00000-0 10574-3 0 9999 2 45261 051.6421 339.1648 0007639 008.3189 351.7926 15.51839905018713 QARMAN 1 45263U 98067RG 20170.72962069 .00004968 00000-0 91129-4 0 9994 2 45263 051.6423 339.7232 0007156 005.7199 354.3871 15.51192069018731 Quetzal 1 1 45598U 98067RL 20170.73950940 .00004791 00000-0 90816-4 0 9997 2 45598 051.6430 340.5362 0003510 094.2166 265.9224 15.50339586007992 /EX
